Year,Month,Day,Hour,Minute,Value (Times are PST for temperature in C)
2009,06,23,00,00,10.90
2009,06,23,00,01,10.80
2009,06,23,00,02,10.80
2009,06,23,00,03,10.70
2009,06,23,00,04,10.60
2009,06,23,00,05,10.60
2009,06,23,00,06,10.50
2009,06,23,00,07,10.50
2009,06,23,00,08,10.50
2009,06,23,00,09,10.50
2009,06,23,00,10,10.50
2009,06,23,00,11,10.60
2009,06,23,00,12,10.60
2009,06,23,00,13,10.60
2009,06,23,00,14,10.70
2009,06,23,00,15,10.70
2009,06,23,00,16,10.80
2009,06,23,00,17,10.80
2009,06,23,00,18,10.80
2009,06,23,00,19,10.80
2009,06,23,00,20,10.80
2009,06,23,00,21,10.80
2009,06,23,00,22,10.80
2009,06,23,00,23,10.70
2009,06,23,00,24,10.70
2009,06,23,00,25,10.60
2009,06,23,00,26,10.50
2009,06,23,00,27,10.50
2009,06,23,00,28,10.40
2009,06,23,00,29,10.30
2009,06,23,00,30,10.30
2009,06,23,00,31,10.20
2009,06,23,00,32,10.30
2009,06,23,00,33,10.30
2009,06,23,00,34,10.30
2009,06,23,00,35,10.30
2009,06,23,00,36,10.30
2009,06,23,00,37,10.30
2009,06,23,00,38,10.30
2009,06,23,00,39,10.30
2009,06,23,00,40,10.20
2009,06,23,00,41,10.20
2009,06,23,00,42,10.20
2009,06,23,00,43,10.10
2009,06,23,00,44,10.10
2009,06,23,00,45,10.10
2009,06,23,00,46,10.10
2009,06,23,00,47,10.10
2009,06,23,00,48,10.10
2009,06,23,00,49,10.10
2009,06,23,00,50,10.00
2009,06,23,00,51,10.00
2009,06,23,00,52,9.90
2009,06,23,00,53,9.90
2009,06,23,00,54,9.80
2009,06,23,00,55,9.80
2009,06,23,00,56,9.80
2009,06,23,00,57,9.80
2009,06,23,00,58,9.80
2009,06,23,00,59,9.80
2009,06,23,01,00,9.70
2009,06,23,01,01,9.70
2009,06,23,01,02,9.70
2009,06,23,01,03,9.70
2009,06,23,01,04,9.70
2009,06,23,01,05,9.70
2009,06,23,01,06,9.70
2009,06,23,01,07,9.80
2009,06,23,01,08,9.80
2009,06,23,01,09,9.80
2009,06,23,01,10,9.70
2009,06,23,01,11,9.70
2009,06,23,01,12,9.70
2009,06,23,01,13,9.60
2009,06,23,01,14,9.60
2009,06,23,01,15,9.60
2009,06,23,01,16,9.60
2009,06,23,01,17,9.60
2009,06,23,01,18,9.50
2009,06,23,01,19,9.50
2009,06,23,01,20,9.50
2009,06,23,01,21,9.60
2009,06,23,01,22,9.60
2009,06,23,01,23,9.60
2009,06,23,01,24,9.60
2009,06,23,01,25,9.70
2009,06,23,01,26,9.70
2009,06,23,01,27,9.60
2009,06,23,01,28,9.70
2009,06,23,01,29,9.70
2009,06,23,01,30,9.70
2009,06,23,01,31,9.80
2009,06,23,01,32,9.80
2009,06,23,01,33,9.80
2009,06,23,01,34,9.70
2009,06,23,01,35,9.70
2009,06,23,01,36,9.60
2009,06,23,01,37,9.60
2009,06,23,01,38,9.50
2009,06,23,01,39,9.50
2009,06,23,01,40,9.50
2009,06,23,01,41,9.40
2009,06,23,01,42,9.40
2009,06,23,01,43,9.50
2009,06,23,01,44,9.50
2009,06,23,01,45,9.60
2009,06,23,01,46,9.60
2009,06,23,01,47,9.60
2009,06,23,01,48,9.80
2009,06,23,01,49,9.80
2009,06,23,01,50,9.80
2009,06,23,01,51,9.80
2009,06,23,01,52,9.90
2009,06,23,01,53,9.90
2009,06,23,01,54,9.90
2009,06,23,01,55,9.80
2009,06,23,01,56,9.80
2009,06,23,01,57,9.70
2009,06,23,01,58,9.60
2009,06,23,01,59,9.60
2009,06,23,02,00,9.70
2009,06,23,02,01,9.80
2009,06,23,02,02,9.80
2009,06,23,02,03,9.90
2009,06,23,02,04,10.00
2009,06,23,02,05,10.10
2009,06,23,02,06,10.10
2009,06,23,02,07,10.10
2009,06,23,02,08,10.10
2009,06,23,02,09,10.00
2009,06,23,02,10,10.00
2009,06,23,02,11,10.00
2009,06,23,02,12,9.90
2009,06,23,02,13,9.80
2009,06,23,02,14,9.70
2009,06,23,02,15,9.60
2009,06,23,02,16,9.50
2009,06,23,02,17,9.40
2009,06,23,02,18,9.30
2009,06,23,02,19,9.30
2009,06,23,02,20,9.20
2009,06,23,02,21,9.20
2009,06,23,02,22,9.20
2009,06,23,02,23,9.20
2009,06,23,02,24,9.20
2009,06,23,02,25,9.20
2009,06,23,02,26,9.10
2009,06,23,02,27,9.10
2009,06,23,02,28,9.10
2009,06,23,02,29,9.10
2009,06,23,02,30,9.10
2009,06,23,02,31,9.20
2009,06,23,02,32,9.20
2009,06,23,02,33,9.30
2009,06,23,02,34,9.30
2009,06,23,02,35,9.40
2009,06,23,02,36,9.40
2009,06,23,02,37,9.50
2009,06,23,02,38,9.50
2009,06,23,02,39,9.50
2009,06,23,02,40,9.40
2009,06,23,02,41,9.40
2009,06,23,02,42,9.40
2009,06,23,02,43,9.40
2009,06,23,02,44,9.40
2009,06,23,02,45,9.40
2009,06,23,02,46,9.40
2009,06,23,02,47,9.40
2009,06,23,02,48,9.30
2009,06,23,02,49,9.30
2009,06,23,02,50,9.20
2009,06,23,02,51,9.20
2009,06,23,02,52,9.10
2009,06,23,02,53,9.20
2009,06,23,02,54,9.20
2009,06,23,02,55,9.20
2009,06,23,02,56,9.20
2009,06,23,02,57,9.20
2009,06,23,02,58,9.20
2009,06,23,02,59,9.20
2009,06,23,03,00,9.20
2009,06,23,03,01,9.20
2009,06,23,03,02,9.30
2009,06,23,03,03,9.30
2009,06,23,03,04,9.30
2009,06,23,03,05,9.40
2009,06,23,03,06,9.40
2009,06,23,03,07,9.40
2009,06,23,03,08,9.40
2009,06,23,03,09,9.40
2009,06,23,03,10,9.40
2009,06,23,03,11,9.30
2009,06,23,03,12,9.30
2009,06,23,03,13,9.20
2009,06,23,03,14,9.20
2009,06,23,03,15,9.20
2009,06,23,03,16,9.10
2009,06,23,03,17,9.10
2009,06,23,03,18,9.00
2009,06,23,03,19,9.00
2009,06,23,03,20,8.90
2009,06,23,03,21,8.90
2009,06,23,03,22,8.80
2009,06,23,03,23,8.80
2009,06,23,03,24,8.70
2009,06,23,03,25,8.70
2009,06,23,03,26,8.70
2009,06,23,03,27,8.60
2009,06,23,03,28,8.60
2009,06,23,03,29,8.60
2009,06,23,03,30,8.60
2009,06,23,03,31,8.50
2009,06,23,03,32,8.50
2009,06,23,03,33,8.50
2009,06,23,03,34,8.40
2009,06,23,03,35,8.40
2009,06,23,03,36,8.40
2009,06,23,03,37,8.40
2009,06,23,03,38,8.40
2009,06,23,03,39,8.40
2009,06,23,03,40,8.30
2009,06,23,03,41,8.30
2009,06,23,03,42,8.30
2009,06,23,03,43,8.30
2009,06,23,03,44,8.40
2009,06,23,03,45,8.40
2009,06,23,03,46,8.40
2009,06,23,03,47,8.30
2009,06,23,03,48,8.30
2009,06,23,03,49,8.30
2009,06,23,03,50,8.30
2009,06,23,03,51,8.30
2009,06,23,03,52,8.20
2009,06,23,03,53,8.20
2009,06,23,03,54,8.20
2009,06,23,03,55,8.20
2009,06,23,03,56,8.20
2009,06,23,03,57,8.20
2009,06,23,03,58,8.20
2009,06,23,03,59,8.20
2009,06,23,04,00,8.20
2009,06,23,04,01,8.20
2009,06,23,04,02,8.20
2009,06,23,04,03,8.10
2009,06,23,04,04,8.10
2009,06,23,04,05,8.10
2009,06,23,04,06,8.10
2009,06,23,04,07,8.10
2009,06,23,04,08,8.10
2009,06,23,04,09,8.10
2009,06,23,04,10,8.10
2009,06,23,04,11,8.00
2009,06,23,04,12,8.00
2009,06,23,04,13,8.00
2009,06,23,04,14,7.90
2009,06,23,04,15,7.90
2009,06,23,04,16,7.90
2009,06,23,04,17,7.90
2009,06,23,04,18,7.90
2009,06,23,04,19,8.00
2009,06,23,04,20,8.00
2009,06,23,04,21,8.00
2009,06,23,04,22,8.00
2009,06,23,04,23,8.00
2009,06,23,04,24,8.00
2009,06,23,04,25,8.00
2009,06,23,04,26,7.90
2009,06,23,04,27,7.90
2009,06,23,04,28,7.90
2009,06,23,04,29,7.90
2009,06,23,04,30,7.90
2009,06,23,04,31,7.90
2009,06,23,04,32,7.90
2009,06,23,04,33,7.90
2009,06,23,04,34,7.90
2009,06,23,04,35,7.90
2009,06,23,04,36,7.90
2009,06,23,04,37,7.90
2009,06,23,04,38,7.90
2009,06,23,04,39,7.90
2009,06,23,04,40,7.80
2009,06,23,04,41,7.80
2009,06,23,04,42,7.80
2009,06,23,04,43,7.80
2009,06,23,04,44,7.80
2009,06,23,04,45,7.80
2009,06,23,04,46,7.70
2009,06,23,04,47,7.70
2009,06,23,04,48,7.70
2009,06,23,04,49,7.70
2009,06,23,04,50,7.60
2009,06,23,04,51,7.70
2009,06,23,04,52,7.70
2009,06,23,04,53,7.70
2009,06,23,04,54,7.60
2009,06,23,04,55,7.60
2009,06,23,04,56,7.60
2009,06,23,04,57,7.60
2009,06,23,04,58,7.60
2009,06,23,04,59,7.60
2009,06,23,05,00,7.50
2009,06,23,05,01,7.50
2009,06,23,05,02,7.50
2009,06,23,05,03,7.50
2009,06,23,05,04,7.40
2009,06,23,05,05,7.40
2009,06,23,05,06,7.40
2009,06,23,05,07,7.40
2009,06,23,05,08,7.40
2009,06,23,05,09,7.40
2009,06,23,05,10,7.40
2009,06,23,05,11,7.30
2009,06,23,05,12,7.30
2009,06,23,05,13,7.30
2009,06,23,05,14,7.30
2009,06,23,05,15,7.30
2009,06,23,05,16,7.30
2009,06,23,05,17,7.20
2009,06,23,05,18,7.20
2009,06,23,05,19,7.20
2009,06,23,05,20,7.20
2009,06,23,05,21,7.30
2009,06,23,05,22,7.30
2009,06,23,05,23,7.40
2009,06,23,05,24,7.50
2009,06,23,05,25,7.60
2009,06,23,05,26,7.60
2009,06,23,05,27,7.60
2009,06,23,05,28,7.60
2009,06,23,05,29,7.60
2009,06,23,05,30,7.50
2009,06,23,05,31,7.50
2009,06,23,05,32,7.50
2009,06,23,05,33,7.50
2009,06,23,05,34,7.50
2009,06,23,05,35,7.40
2009,06,23,05,36,7.40
2009,06,23,05,37,7.40
2009,06,23,05,38,7.40
2009,06,23,05,39,7.40
2009,06,23,05,40,7.40
2009,06,23,05,41,7.40
2009,06,23,05,42,7.50
2009,06,23,05,43,7.50
2009,06,23,05,44,7.50
2009,06,23,05,45,7.50
2009,06,23,05,46,7.60
2009,06,23,05,47,7.60
2009,06,23,05,48,7.60
2009,06,23,05,49,7.60
2009,06,23,05,50,7.60
2009,06,23,05,51,7.60
2009,06,23,05,52,7.70
2009,06,23,05,53,7.70
2009,06,23,05,54,7.80
2009,06,23,05,55,7.80
2009,06,23,05,56,7.90
2009,06,23,05,57,7.90
2009,06,23,05,58,7.90
2009,06,23,05,59,7.90
2009,06,23,06,00,7.90
2009,06,23,06,01,7.90
2009,06,23,06,02,7.90
2009,06,23,06,03,7.90
2009,06,23,06,04,7.90
2009,06,23,06,05,7.90
2009,06,23,06,06,7.90
2009,06,23,06,07,7.90
2009,06,23,06,08,7.90
2009,06,23,06,09,7.90
2009,06,23,06,10,7.90
2009,06,23,06,11,7.80
2009,06,23,06,12,7.90
2009,06,23,06,13,7.90
2009,06,23,06,14,8.00
2009,06,23,06,15,8.00
2009,06,23,06,16,8.00
2009,06,23,06,17,8.10
2009,06,23,06,18,8.10
2009,06,23,06,19,8.20
2009,06,23,06,20,8.20
2009,06,23,06,21,8.30
2009,06,23,06,22,8.40
2009,06,23,06,23,8.40
2009,06,23,06,24,8.50
2009,06,23,06,25,8.60
2009,06,23,06,26,8.70
2009,06,23,06,27,8.80
2009,06,23,06,28,8.80
2009,06,23,06,29,8.80
2009,06,23,06,30,8.80
2009,06,23,06,31,8.90
2009,06,23,06,32,9.00
2009,06,23,06,33,9.00
2009,06,23,06,34,9.00
2009,06,23,06,35,9.00
2009,06,23,06,36,9.00
2009,06,23,06,37,9.00
2009,06,23,06,38,9.00
2009,06,23,06,39,9.00
2009,06,23,06,40,9.00
2009,06,23,06,41,9.10
2009,06,23,06,42,9.10
2009,06,23,06,43,9.10
2009,06,23,06,44,9.10
2009,06,23,06,45,9.20
2009,06,23,06,46,9.20
2009,06,23,06,47,9.30
2009,06,23,06,48,9.30
2009,06,23,06,49,9.40
2009,06,23,06,50,9.50
2009,06,23,06,51,9.60
2009,06,23,06,52,9.70
2009,06,23,06,53,9.80
2009,06,23,06,54,9.90
2009,06,23,06,55,9.90
2009,06,23,06,56,10.00
2009,06,23,06,57,10.10
2009,06,23,06,58,10.20
2009,06,23,06,59,10.20
2009,06,23,07,00,10.30
2009,06,23,07,01,10.30
2009,06,23,07,02,10.40
2009,06,23,07,03,10.50
2009,06,23,07,04,10.50
2009,06,23,07,05,10.60
2009,06,23,07,06,10.70
2009,06,23,07,07,10.80
2009,06,23,07,08,10.90
2009,06,23,07,09,11.00
2009,06,23,07,10,11.20
2009,06,23,07,11,11.30
2009,06,23,07,12,11.40
2009,06,23,07,13,11.50
2009,06,23,07,14,11.50
2009,06,23,07,15,11.60
2009,06,23,07,16,11.70
2009,06,23,07,17,11.80
2009,06,23,07,18,11.90
2009,06,23,07,19,11.90
2009,06,23,07,20,12.00
2009,06,23,07,21,12.10
2009,06,23,07,22,12.20
2009,06,23,07,23,12.30
2009,06,23,07,24,12.40
2009,06,23,07,25,12.50
2009,06,23,07,26,12.60
2009,06,23,07,27,12.70
2009,06,23,07,28,12.80
2009,06,23,07,29,12.90
2009,06,23,07,30,12.90
2009,06,23,07,31,12.90
2009,06,23,07,32,12.90
2009,06,23,07,33,12.90
2009,06,23,07,34,12.90
2009,06,23,07,35,12.90
2009,06,23,07,36,13.00
2009,06,23,07,37,13.10
2009,06,23,07,38,13.20
2009,06,23,07,39,13.20
2009,06,23,07,40,13.30
2009,06,23,07,41,13.40
2009,06,23,07,42,13.40
2009,06,23,07,43,13.40
2009,06,23,07,44,13.40
2009,06,23,07,45,13.40
2009,06,23,07,46,13.50
2009,06,23,07,47,13.50
2009,06,23,07,48,13.60
2009,06,23,07,49,13.50
2009,06,23,07,50,13.60
2009,06,23,07,51,13.60
2009,06,23,07,52,13.70
2009,06,23,07,53,13.70
2009,06,23,07,54,13.80
2009,06,23,07,55,13.80
2009,06,23,07,56,13.80
2009,06,23,07,57,13.80
2009,06,23,07,58,13.90
2009,06,23,07,59,13.90
2009,06,23,08,00,13.90
2009,06,23,08,01,13.90
2009,06,23,08,02,13.90
2009,06,23,08,03,14.00
2009,06,23,08,04,14.00
2009,06,23,08,05,14.10
2009,06,23,08,06,14.10
2009,06,23,08,07,14.20
2009,06,23,08,08,14.20
2009,06,23,08,09,14.30
2009,06,23,08,10,14.30
2009,06,23,08,11,14.30
2009,06,23,08,12,14.40
2009,06,23,08,13,14.40
2009,06,23,08,14,14.50
2009,06,23,08,15,14.50
2009,06,23,08,16,14.60
2009,06,23,08,17,14.70
2009,06,23,08,18,14.70
2009,06,23,08,19,14.70
2009,06,23,08,20,14.80
2009,06,23,08,21,14.80
2009,06,23,08,22,14.80
2009,06,23,08,23,14.80
2009,06,23,08,24,14.80
2009,06,23,08,25,14.90
2009,06,23,08,26,14.90
2009,06,23,08,27,15.00
2009,06,23,08,28,14.90
2009,06,23,08,29,14.90
2009,06,23,08,30,14.90
2009,06,23,08,31,14.80
2009,06,23,08,32,14.80
2009,06,23,08,33,14.80
2009,06,23,08,34,14.80
2009,06,23,08,35,14.80
2009,06,23,08,36,14.80
2009,06,23,08,37,14.80
2009,06,23,08,38,14.90
2009,06,23,08,39,15.00
2009,06,23,08,40,15.00
2009,06,23,08,41,15.00
2009,06,23,08,42,15.00
2009,06,23,08,43,15.00
2009,06,23,08,44,15.10
2009,06,23,08,45,15.10
2009,06,23,08,46,15.00
2009,06,23,08,47,15.00
2009,06,23,08,48,15.00
2009,06,23,08,49,14.90
2009,06,23,08,50,14.80
2009,06,23,08,51,14.80
2009,06,23,08,52,14.80
2009,06,23,08,53,14.90
2009,06,23,08,54,15.00
2009,06,23,08,55,15.00
2009,06,23,08,56,15.00
2009,06,23,08,57,15.00
2009,06,23,08,58,15.00
2009,06,23,08,59,15.00
2009,06,23,09,00,15.00
2009,06,23,09,01,15.00
2009,06,23,09,02,15.00
2009,06,23,09,03,15.00
2009,06,23,09,04,15.00
2009,06,23,09,05,15.00
2009,06,23,09,06,15.00
2009,06,23,09,07,15.00
2009,06,23,09,08,15.00
2009,06,23,09,09,15.10
2009,06,23,09,10,15.10
2009,06,23,09,11,15.10
2009,06,23,09,12,15.20
2009,06,23,09,13,15.30
2009,06,23,09,14,15.40
2009,06,23,09,15,15.40
2009,06,23,09,16,15.30
2009,06,23,09,17,15.30
2009,06,23,09,18,15.20
2009,06,23,09,19,15.30
2009,06,23,09,20,15.30
2009,06,23,09,21,15.20
2009,06,23,09,22,15.20
2009,06,23,09,23,15.20
2009,06,23,09,24,15.10
2009,06,23,09,25,15.00
2009,06,23,09,26,15.00
2009,06,23,09,27,15.00
2009,06,23,09,28,15.00
2009,06,23,09,29,15.00
2009,06,23,09,30,15.10
2009,06,23,09,31,15.10
2009,06,23,09,32,15.20
2009,06,23,09,33,15.20
2009,06,23,09,34,15.30
2009,06,23,09,35,15.30
2009,06,23,09,36,15.40
2009,06,23,09,37,15.50
2009,06,23,09,38,15.50
2009,06,23,09,39,15.40
2009,06,23,09,40,15.30
2009,06,23,09,41,15.30
2009,06,23,09,42,15.30
2009,06,23,09,43,15.30
2009,06,23,09,44,15.30
2009,06,23,09,45,15.20
2009,06,23,09,46,15.00
2009,06,23,09,47,15.00
2009,06,23,09,48,15.00
2009,06,23,09,49,15.00
2009,06,23,09,50,15.00
2009,06,23,09,51,15.00
2009,06,23,09,52,15.00
2009,06,23,09,53,15.00
2009,06,23,09,54,15.00
2009,06,23,09,55,15.00
2009,06,23,09,56,15.00
2009,06,23,09,57,15.10
2009,06,23,09,58,15.10
2009,06,23,09,59,15.10
2009,06,23,10,00,15.20
2009,06,23,10,01,15.30
2009,06,23,10,02,15.30
2009,06,23,10,03,15.50
2009,06,23,10,04,15.60
2009,06,23,10,05,15.60
2009,06,23,10,06,15.70
2009,06,23,10,07,15.70
2009,06,23,10,08,15.80
2009,06,23,10,09,15.70
2009,06,23,10,10,15.60
2009,06,23,10,11,15.50
2009,06,23,10,12,15.40
2009,06,23,10,13,15.40
2009,06,23,10,14,15.40
2009,06,23,10,15,15.30
2009,06,23,10,16,15.30
2009,06,23,10,17,15.30
2009,06,23,10,18,15.40
2009,06,23,10,19,15.50
2009,06,23,10,20,15.50
2009,06,23,10,21,15.50
2009,06,23,10,22,15.60
2009,06,23,10,23,15.60
2009,06,23,10,24,15.70
2009,06,23,10,25,15.90
2009,06,23,10,26,15.90
2009,06,23,10,27,15.90
2009,06,23,10,28,15.80
2009,06,23,10,29,15.70
2009,06,23,10,30,15.60
2009,06,23,10,31,15.50
2009,06,23,10,32,15.60
2009,06,23,10,33,15.50
2009,06,23,10,34,15.50
2009,06,23,10,35,15.60
2009,06,23,10,36,15.70
2009,06,23,10,37,15.80
2009,06,23,10,38,15.80
2009,06,23,10,39,15.80
2009,06,23,10,40,15.80
2009,06,23,10,41,15.90
2009,06,23,10,42,15.90
2009,06,23,10,43,15.80
2009,06,23,10,44,15.70
2009,06,23,10,45,15.70
2009,06,23,10,46,15.60
2009,06,23,10,47,15.60
2009,06,23,10,48,15.60
2009,06,23,10,49,15.70
2009,06,23,10,50,15.70
2009,06,23,10,51,15.60
2009,06,23,10,52,15.50
2009,06,23,10,53,15.40
2009,06,23,10,54,15.40
2009,06,23,10,55,15.50
2009,06,23,10,56,15.50
2009,06,23,10,57,15.60
2009,06,23,10,58,15.70
2009,06,23,10,59,15.60
2009,06,23,11,00,15.50
2009,06,23,11,01,15.50
2009,06,23,11,02,15.50
2009,06,23,11,03,15.60
2009,06,23,11,04,15.70
2009,06,23,11,05,15.80
2009,06,23,11,06,15.80
2009,06,23,11,07,15.90
2009,06,23,11,08,16.10
2009,06,23,11,09,16.10
2009,06,23,11,10,16.00
2009,06,23,11,11,16.10
2009,06,23,11,12,16.20
2009,06,23,11,13,16.40
2009,06,23,11,14,16.50
2009,06,23,11,15,16.50
2009,06,23,11,16,16.40
2009,06,23,11,17,16.40
2009,06,23,11,18,16.30
2009,06,23,11,19,16.30
2009,06,23,11,20,16.30
2009,06,23,11,21,16.50
2009,06,23,11,22,16.60
2009,06,23,11,23,16.70
2009,06,23,11,24,16.70
2009,06,23,11,25,16.50
2009,06,23,11,26,16.30
2009,06,23,11,27,16.20
2009,06,23,11,28,16.10
2009,06,23,11,29,16.10
2009,06,23,11,30,16.20
2009,06,23,11,31,16.30
2009,06,23,11,32,16.50
2009,06,23,11,33,16.50
2009,06,23,11,34,16.40
2009,06,23,11,35,16.30
2009,06,23,11,36,16.20
2009,06,23,11,37,16.20
2009,06,23,11,38,16.10
2009,06,23,11,39,16.20
2009,06,23,11,40,16.30
2009,06,23,11,41,16.40
2009,06,23,11,42,16.30
2009,06,23,11,43,16.30
2009,06,23,11,44,16.30
2009,06,23,11,45,16.30
2009,06,23,11,46,16.30
2009,06,23,11,47,16.30
2009,06,23,11,48,16.30
2009,06,23,11,49,16.30
2009,06,23,11,50,16.30
2009,06,23,11,51,16.40
2009,06,23,11,52,16.60
2009,06,23,11,53,16.60
2009,06,23,11,54,16.50
2009,06,23,11,55,16.40
2009,06,23,11,56,16.40
2009,06,23,11,57,16.40
2009,06,23,11,58,16.50
2009,06,23,11,59,16.60
2009,06,23,12,00,16.60
2009,06,23,12,01,16.60
2009,06,23,12,02,16.60
2009,06,23,12,03,16.60
2009,06,23,12,04,16.60
2009,06,23,12,05,16.60
2009,06,23,12,06,16.50
2009,06,23,12,07,16.50
2009,06,23,12,08,16.60
2009,06,23,12,09,16.60
2009,06,23,12,10,16.70
2009,06,23,12,11,16.70
2009,06,23,12,12,16.80
2009,06,23,12,13,16.90
2009,06,23,12,14,16.90
2009,06,23,12,15,16.90
2009,06,23,12,16,16.90
2009,06,23,12,17,16.90
2009,06,23,12,18,16.90
2009,06,23,12,19,16.90
2009,06,23,12,20,16.80
2009,06,23,12,21,16.70
2009,06,23,12,22,16.80
2009,06,23,12,23,16.90
2009,06,23,12,24,16.90
2009,06,23,12,25,16.80
2009,06,23,12,26,16.80
2009,06,23,12,27,16.80
2009,06,23,12,28,16.80
2009,06,23,12,29,16.80
2009,06,23,12,30,16.90
2009,06,23,12,31,17.00
2009,06,23,12,32,17.20
2009,06,23,12,33,17.10
2009,06,23,12,34,17.00
2009,06,23,12,35,17.00
2009,06,23,12,36,17.10
2009,06,23,12,37,17.20
2009,06,23,12,38,17.30
2009,06,23,12,39,17.40
2009,06,23,12,40,17.40
2009,06,23,12,41,17.30
2009,06,23,12,42,17.40
2009,06,23,12,43,17.50
2009,06,23,12,44,17.60
2009,06,23,12,45,17.70
2009,06,23,12,46,17.80
2009,06,23,12,47,17.80
2009,06,23,12,48,17.80
2009,06,23,12,49,17.70
2009,06,23,12,50,17.70
2009,06,23,12,51,17.70
2009,06,23,12,52,17.80
2009,06,23,12,53,17.70
2009,06,23,12,54,17.60
2009,06,23,12,55,17.50
2009,06,23,12,56,17.50
2009,06,23,12,57,17.50
2009,06,23,12,58,17.60
2009,06,23,12,59,17.50
2009,06,23,13,00,17.30
2009,06,23,13,01,17.10
2009,06,23,13,02,17.00
2009,06,23,13,03,17.00
2009,06,23,13,04,17.00
2009,06,23,13,05,17.00
2009,06,23,13,06,17.00
2009,06,23,13,07,17.00
2009,06,23,13,08,17.00
2009,06,23,13,09,16.90
2009,06,23,13,10,16.90
2009,06,23,13,11,17.00
2009,06,23,13,12,17.20
2009,06,23,13,13,17.10
2009,06,23,13,14,17.00
2009,06,23,13,15,17.00
2009,06,23,13,16,16.90
2009,06,23,13,17,16.80
2009,06,23,13,18,16.80
2009,06,23,13,19,16.80
2009,06,23,13,20,16.90
2009,06,23,13,21,17.00
2009,06,23,13,22,17.10
2009,06,23,13,23,17.20
2009,06,23,13,24,17.20
2009,06,23,13,25,17.20
2009,06,23,13,26,17.10
2009,06,23,13,27,17.00
2009,06,23,13,28,16.80
2009,06,23,13,29,16.70
2009,06,23,13,30,16.70
2009,06,23,13,31,16.70
2009,06,23,13,32,16.70
2009,06,23,13,33,16.70
2009,06,23,13,34,16.60
2009,06,23,13,35,16.60
2009,06,23,13,36,16.60
2009,06,23,13,37,16.60
2009,06,23,13,38,16.60
2009,06,23,13,39,16.70
2009,06,23,13,40,16.70
2009,06,23,13,41,16.80
2009,06,23,13,42,16.80
2009,06,23,13,43,16.90
2009,06,23,13,44,16.90
2009,06,23,13,45,17.00
2009,06,23,13,46,17.00
2009,06,23,13,47,17.10
2009,06,23,13,48,17.20
2009,06,23,13,49,17.30
2009,06,23,13,50,17.40
2009,06,23,13,51,17.50
2009,06,23,13,52,17.40
2009,06,23,13,53,17.30
2009,06,23,13,54,17.30
2009,06,23,13,55,17.30
2009,06,23,13,56,17.40
2009,06,23,13,57,17.50
2009,06,23,13,58,17.50
2009,06,23,13,59,17.50
2009,06,23,14,00,17.40
2009,06,23,14,01,17.40
2009,06,23,14,02,17.30
2009,06,23,14,03,17.40
2009,06,23,14,04,17.40
2009,06,23,14,05,17.50
2009,06,23,14,06,17.50
2009,06,23,14,07,17.40
2009,06,23,14,08,17.40
2009,06,23,14,09,17.40
2009,06,23,14,10,17.50
2009,06,23,14,11,17.50
2009,06,23,14,12,17.40
2009,06,23,14,13,17.40
2009,06,23,14,14,17.30
2009,06,23,14,15,17.30
2009,06,23,14,16,17.30
2009,06,23,14,17,17.30
2009,06,23,14,18,17.30
2009,06,23,14,19,17.20
2009,06,23,14,20,17.20
2009,06,23,14,21,17.20
2009,06,23,14,22,17.20
2009,06,23,14,23,17.20
2009,06,23,14,24,17.20
2009,06,23,14,25,17.20
2009,06,23,14,26,17.10
2009,06,23,14,27,17.10
2009,06,23,14,28,17.10
2009,06,23,14,29,17.10
2009,06,23,14,30,17.20
2009,06,23,14,31,17.20
2009,06,23,14,32,17.20
2009,06,23,14,33,17.20
2009,06,23,14,34,17.20
2009,06,23,14,35,17.20
2009,06,23,14,36,17.20
2009,06,23,14,37,17.30
2009,06,23,14,38,17.30
2009,06,23,14,39,17.30
2009,06,23,14,40,17.40
2009,06,23,14,41,17.40
2009,06,23,14,42,17.40
2009,06,23,14,43,17.30
2009,06,23,14,44,17.40
2009,06,23,14,45,17.40
2009,06,23,14,46,17.40
2009,06,23,14,47,17.40
2009,06,23,14,48,17.40
2009,06,23,14,49,17.50
2009,06,23,14,50,17.60
2009,06,23,14,51,17.60
2009,06,23,14,52,17.70
2009,06,23,14,53,17.70
2009,06,23,14,54,17.70
2009,06,23,14,55,17.70
2009,06,23,14,56,17.70
2009,06,23,14,57,17.80
2009,06,23,14,58,17.80
2009,06,23,14,59,17.80
2009,06,23,15,00,17.80
2009,06,23,15,01,17.70
2009,06,23,15,02,17.70
2009,06,23,15,03,17.70
2009,06,23,15,04,17.80
2009,06,23,15,05,17.90
2009,06,23,15,06,17.90
2009,06,23,15,07,17.90
2009,06,23,15,08,18.00
2009,06,23,15,09,18.00
2009,06,23,15,10,18.10
2009,06,23,15,11,18.10
2009,06,23,15,12,18.10
2009,06,23,15,13,18.20
2009,06,23,15,14,18.20
2009,06,23,15,15,18.20
2009,06,23,15,16,18.20
2009,06,23,15,17,18.20
2009,06,23,15,18,18.20
2009,06,23,15,19,18.20
2009,06,23,15,20,18.20
2009,06,23,15,21,18.20
2009,06,23,15,22,18.20
2009,06,23,15,23,18.20
2009,06,23,15,24,18.10
2009,06,23,15,25,18.10
2009,06,23,15,26,18.10
2009,06,23,15,27,18.10
2009,06,23,15,28,18.20
2009,06,23,15,29,18.20
2009,06,23,15,30,18.20
2009,06,23,15,31,18.20
2009,06,23,15,32,18.20
2009,06,23,15,33,18.20
2009,06,23,15,34,18.20
2009,06,23,15,35,18.20
2009,06,23,15,36,18.10
2009,06,23,15,37,18.10
2009,06,23,15,38,18.10
2009,06,23,15,39,18.10
2009,06,23,15,40,18.10
2009,06,23,15,41,18.10
2009,06,23,15,42,18.10
2009,06,23,15,43,18.10
2009,06,23,15,44,18.10
2009,06,23,15,45,18.10
2009,06,23,15,46,18.10
2009,06,23,15,47,18.20
2009,06,23,15,48,18.20
2009,06,23,15,49,18.20
2009,06,23,15,50,18.10
2009,06,23,15,51,18.10
2009,06,23,15,52,18.10
2009,06,23,15,53,18.10
2009,06,23,15,54,18.10
2009,06,23,15,55,18.00
2009,06,23,15,56,18.00
2009,06,23,15,57,18.00
2009,06,23,15,58,18.00
2009,06,23,15,59,18.00
2009,06,23,16,00,18.10
2009,06,23,16,01,18.10
2009,06,23,16,02,18.20
2009,06,23,16,03,18.20
2009,06,23,16,04,18.20
2009,06,23,16,05,18.30
2009,06,23,16,06,18.20
2009,06,23,16,07,18.20
2009,06,23,16,08,18.10
2009,06,23,16,09,18.20
2009,06,23,16,10,18.20
2009,06,23,16,11,18.20
2009,06,23,16,12,18.30
2009,06,23,16,13,18.30
2009,06,23,16,14,18.30
2009,06,23,16,15,18.50
2009,06,23,16,16,18.60
2009,06,23,16,17,18.60
2009,06,23,16,18,18.60
2009,06,23,16,19,18.50
2009,06,23,16,20,18.50
2009,06,23,16,21,18.40
2009,06,23,16,22,18.40
2009,06,23,16,23,18.40
2009,06,23,16,24,18.40
2009,06,23,16,25,18.30
2009,06,23,16,26,18.30
2009,06,23,16,27,18.40
2009,06,23,16,28,18.40
2009,06,23,16,29,18.40
2009,06,23,16,30,18.40
2009,06,23,16,31,18.50
2009,06,23,16,32,18.50
2009,06,23,16,33,18.60
2009,06,23,16,34,18.50
2009,06,23,16,35,18.50
2009,06,23,16,36,18.50
2009,06,23,16,37,18.50
2009,06,23,16,38,18.50
2009,06,23,16,39,18.50
2009,06,23,16,40,18.50
2009,06,23,16,41,18.40
2009,06,23,16,42,18.40
2009,06,23,16,43,18.40
2009,06,23,16,44,18.30
2009,06,23,16,45,18.40
2009,06,23,16,46,18.40
2009,06,23,16,47,18.40
2009,06,23,16,48,18.40
2009,06,23,16,49,18.40
2009,06,23,16,50,18.40
2009,06,23,16,51,18.40
2009,06,23,16,52,18.40
2009,06,23,16,53,18.50
2009,06,23,16,54,18.50
2009,06,23,16,55,18.50
2009,06,23,16,56,18.50
2009,06,23,16,57,18.50
2009,06,23,16,58,18.40
2009,06,23,16,59,18.40
2009,06,23,17,00,18.40
2009,06,23,17,01,18.40
2009,06,23,17,02,18.40
2009,06,23,17,03,18.30
2009,06,23,17,04,18.30
2009,06,23,17,05,18.40
2009,06,23,17,06,18.30
2009,06,23,17,07,18.30
2009,06,23,17,08,18.30
2009,06,23,17,09,18.30
2009,06,23,17,10,18.20
2009,06,23,17,11,18.20
2009,06,23,17,12,18.20
2009,06,23,17,13,18.10
2009,06,23,17,14,18.00
2009,06,23,17,15,17.90
2009,06,23,17,16,17.90
2009,06,23,17,17,17.90
2009,06,23,17,18,17.90
2009,06,23,17,19,17.90
2009,06,23,17,20,17.90
2009,06,23,17,21,18.00
2009,06,23,17,22,18.10
2009,06,23,17,23,18.10
2009,06,23,17,24,18.10
2009,06,23,17,25,18.10
2009,06,23,17,26,18.00
2009,06,23,17,27,18.00
2009,06,23,17,28,17.90
2009,06,23,17,29,17.90
2009,06,23,17,30,17.90
2009,06,23,17,31,17.90
2009,06,23,17,32,18.00
2009,06,23,17,33,18.00
2009,06,23,17,34,18.00